User: anonymous   Login
Location: Unspecified
(0.0000°N, 0.0000°E)
Time: 22:06:02
(UTC+02:00)
Language:

Cosmos 1703 Rocket - Orbit

View from above orbital plane
View from above orbital plane
View from above satellite
View from above satellite

Ground track
Ground track

The orbit data is extracted from the following two-line orbital elements,

1 16263U 85108B   18171.97495639  .00000076  00000-0  63728-5 0  9994
2 16263  82.5037 128.3470 0019238 209.8139 214.4330 14.83035151759048
Epoch (UTC): 20 June 2018 23:23:56
Eccentricity: 0.0019238
inclination: 82.5037°
perigee height: 606 km
apogee height: 633 km
right ascension of ascending node: 128.3470°
argument of perigee: 209.8139°
revolutions per day: 14.83035151
mean anomaly at epoch: 214.4330°
orbit number at epoch: 75904

The dashed part of the orbit path shows where the satellite is in the earth's shadow,  

DLR